This demonstration page uses our WeatherBlox Daily Observations layout. Learn more.

Hourly Observations for October 11, 2015

Temp ( °F °C ) Dew Point ( °F °C ) Humidity (%) Winds ( mph kmh ) Pressure ( in mb ) Visibility ( mi km ) Precip ( " mm )
12:15 am 00:15 Clear 61 16.1 54 12.1 77 77 S 7 11 29.83 1010 10 16.0934 0 0
12:35 am 00:35 Clear 60 15.8 54 12.1 79 79 S 7 11 29.8 1009 10 16.0934 0 0
12:55 am 00:55 Clear 60 15.5 54 12.1 80 80 SSW 6 9 29.8 1009 10 16.0934 0 0
1:15 am 01:15 Clear 59 15.1 54 12 82 82 SSW 9 15 29.8 1009 10 16.0934 0 0
1:35 am 01:35 Clear 59 15 54 12 82 82 SSW 8 13 29.77 1008 10 16.0934 0 0
1:55 am 01:55 Clear 59 15 54 12.1 83 83 SSW 6 9 29.77 1008 10 16.0934 0 0
2:15 am 02:15 Clear 59 14.8 54 12.1 84 84 SSW 7 11 29.77 1008 10 16.0934 0 0
2:35 am 02:35 Clear 59 15.2 54 12.1 82 82 SSW 6 9 29.77 1008 10 16.0934 0 0
2:55 am 02:55 Clear 59 14.9 53 11.9 82 82 SSW 6 9 29.77 1008 10 16.0934 0 0
3:15 am 03:15 Clear 58 14.6 53 11.8 83 83 SSW 6 9 29.77 1008 10 16.0934 0 0
3:35 am 03:35 Clear 58 14.5 53 11.6 83 83 SW 8 13 29.77 1008 10 16.0934 0 0
3:55 am 03:55 Clear 58 14.3 53 11.4 83 83 SW 6 9 29.74 1007 10 16.0934 0 0
4:15 am 04:15 Clear 57 14.1 52 11 82 82 SW 7 11 29.74 1007 10 16.0934 0 0
4:35 am 04:35 Clear 58 14.5 51 10.8 79 79 SW 6 9 29.74 1007 10 16.0934 0 0
4:55 am 04:55 Clear 59 15 51 10.3 74 74 SW 6 9 29.74 1007 10 16.0934 0 0
5:15 am 05:15 Clear 57 14.1 50 10.1 77 77 SW 5 7 29.74 1007 10 16.0934 0 0
5:35 am 05:35 Clear 59 14.9 49 9.5 70 70 WSW 6 9 29.74 1007 10 16.0934 0 0
5:55 am 05:55 Clear 59 15.1 48 9 67 67 WSW 6 9 29.74 1007 10 16.0934 0 0
6:15 am 06:15 Clear 58 14.5 48 9 70 70 SW 5 7 29.74 1007 10 16.0934 0 0
6:35 am 06:35 Clear 56 13.5 48 8.8 73 73 SW 6 9 29.74 1007 10 16.0934 0 0
6:55 am 06:55 Clear 57 13.8 47 8.5 71 71 SW 5 7 29.74 1007 10 16.0934 0 0
7:15 am 07:15 Clear 56 13.4 47 8.2 71 71 SW 3 6 29.77 1008 10 16.0934 0 0
7:35 am 07:35 Clear 56 13.4 46 8 70 70 WSW 3 6 29.77 1008 10 16.0934 0 0
7:55 am 07:55 Sunny 55 13 46 7.9 71 71 WSW 3 6 29.77 1008 10 16.0934 0 0
8:15 am 08:15 Sunny 55 13 46 8 72 72 Calm 29.77 1008 10 16.0934 0 0
8:35 am 08:35 Sunny 55 13 46 8 72 72 SW 5 7 29.77 1008 10 16.0934 0 0
8:55 am 08:55 Sunny 58 14.4 47 8.3 67 67 Calm 29.74 1007 10 16.0934 0 0
9:15 am 09:15 Sunny 60 15.3 47 8.6 65 65 SSW 6 9 29.71 1006 10 16.0934 0 0
9:35 am 09:35 Sunny 63 17.1 47 8.6 58 58 SW 5 7 29.71 1006 10 16.0934 0 0
9:55 am 09:55 Sunny 66 18.9 46 8 49 49 WSW 5 7 29.71 1006 10 16.0934 0 0
10:15 am 10:15 Sunny 69 20.5 45 7.4 43 43 W 8 13 29.68 1005 10 16.0934 0 0
10:35 am 10:35 Sunny 71 21.5 45 7.4 40 40 W 8 13 29.68 1005 10 16.0934 0 0
10:55 am 10:55 Sunny 72 22.4 46 7.9 39 39 W 7 11 29.65 1004 10 16.0934 0 0
11:15 am 11:15 Sunny 75 23.7 45 7.2 35 35 WSW 6 9 29.65 1004 10 16.0934 0 0
11:35 am 11:35 Sunny 77 25 45 7.3 32 32 WSW 5 7 29.62 1003 10 16.0934 0 0
11:55 am 11:55 Sunny 80 26.8 45 7.1 29 29 SW 5 7 29.62 1003 10 16.0934 0 0
12:15 pm 12:15 Sunny 83 28.6 43 5.9 24 24 SW 7 11 29.59 1002 10 16.0934 0 0
12:35 pm 12:35 Sunny 86 30 43 6.1 22 22 SW 9 15 29.56 1001 10 16.0934 0 0
12:55 pm 12:55 Sunny 88 31.1 42 5.3 20 20 SW 8 13 29.56 1001 10 16.0934 0 0
1:15 pm 13:15 Sunny 90 32.3 40 4.4 17 17 SW 9 15 29.53 1000 10 16.0934 0 0
1:55 pm 13:55 Sunny 92 33.5 34 1.2 13 13 SW 13 20 29.5 999 10 16.0934 0 0
2:15 pm 14:15 Sunny 93 34 32 0.1 11 11 SW 13 20 29.5 999 10 16.0934 0 0
2:35 pm 14:35 Sunny 94 34.4 33 0.5 11 11 SW 13 20 29.47 998 10 16.0934 0 0
2:55 pm 14:55 Sunny 94 34.5 33 0.6 11 11 SW 12 19 29.44 997 10 16.0934 0 0
3:15 pm 15:15 Sunny 94 34.5 33 0.5 11 11 SW 12 19 29.44 997 10 16.0934 0 0
3:35 pm 15:35 Sunny 94 34.6 33 0.8 12 12 WSW 10 17 29.44 997 10 16.0934 0 0
3:55 pm 15:55 Sunny 94 34.5 33 0.5 11 11 SW 14 22 29.44 997 10 16.0934 0 0
4:15 pm 16:15 Sunny 94 34.6 32 0.1 11 11 WSW 8 13 29.44 997 10 16.0934 0 0
4:35 pm 16:35 Sunny 94 34.5 32 0 11 11 SW 12 19 29.44 997 10 16.0934 0 0
4:55 pm 16:55 Sunny 94 34.5 32 0.2 11 11 SW 10 17 29.41 996 10 16.0934 0 0
5:15 pm 17:15 Sunny 94 34.4 32 -0.2 11 11 SW 10 17 29.44 997 10 16.0934 0 0
5:35 pm 17:35 Sunny 91 32.6 31 -0.3 12 12 SW 7 11 29.44 997 10 16.0934 0 0
5:55 pm 17:55 Sunny 90 32.1 33 0.4 13 13 SW 7 11 29.44 997 10 16.0934 0 0
6:15 pm 18:15 Sunny 90 32.1 33 0.7 13 13 SW 8 13 29.44 997 10 16.0934 0 0
6:35 pm 18:35 Sunny 87 30.5 34 1.1 15 15 SW 6 9 29.44 997 10 16.0934 0 0
6:55 pm 18:55 Sunny 84 28.8 35 1.7 17 17 SW 7 11 29.47 998 10 16.0934 0 0
7:15 pm 19:15 Clear 81 27 36 2.1 20 20 SW 7 11 29.47 998 10 16.0934 0 0
7:35 pm 19:35 Clear 79 26 36 2.4 22 22 SW 7 11 29.5 999 10 16.0934 0 0
7:55 pm 19:55 Clear 77 25 37 2.7 23 23 SW 6 9 29.5 999 10 16.0934 0 0
8:15 pm 20:15 Clear 76 24.5 37 3 25 25 SW 7 11 29.53 1000 10 16.0934 0 0
8:35 pm 20:35 Clear 75 24 37 3 25 25 W 5 7 29.53 1000 10 16.0934 0 0
8:55 pm 20:55 Clear 74 23.4 38 3.3 27 27 NW 10 17 29.59 1002 10 16.0934 0 0
9:15 pm 21:15 Clear 76 24.2 40 4.4 28 28 N 13 20 29.59 1002 10 16.0934 0 0
9:35 pm 21:35 Clear 74 23.6 42 5.3 31 31 N 18 30 29.65 1004 10 16.0934 0 0
9:55 pm 21:55 Clear 73 22.5 41 5.2 33 33 N 18 30 29.68 1005 10 16.0934 0 0
10:15 pm 22:15 Clear 70 21.3 40 4.7 34 34 N 17 28 29.68 1005 10 16.0934 0 0
10:35 pm 22:35 Clear 70 21 40 4.3 34 34 N 14 22 29.68 1005 10 16.0934 0 0
10:55 pm 22:55 Clear 69 20.3 40 4.5 36 36 N 8 13 29.71 1006 10 16.0934 0 0
11:15 pm 23:15 Clear 65 18.6 41 5 41 41 N 8 13 29.71 1006 10 16.0934 0 0
11:35 pm 23:35 Clear 66 18.7 41 5 41 41 N 9 15 29.74 1007 10 16.0934 0 0
11:55 pm 23:55 Clear 63 17.1 42 5.5 47 47 N 9 15 29.77 1008 10 16.0934 0 0

Powered by AerisWeather